{"data":{"norad_id":56809,"epoch":"2026-09-20T07:01:31.007136Z","epoch_age_seconds":135378,"freshness":"FRESH","line1":"1 56809U 23078AU  26263.29271999 -.00000091  00000+0  18384-6 0  9995","line2":"2 56809  69.9994 213.6387 0003370 267.4812  92.5961 14.98329813181830","mean_motion":14.98329813,"eccentricity":0.000337,"inclination_deg":69.9994,"raan_deg":213.6387,"arg_perigee_deg":267.4812,"mean_anomaly_deg":92.5961,"bstar":1.8384e-7,"rev_number":18183,"period_min":96.107011120388,"perigee_km":569.71425402742,"apogee_km":574.39868442568,"semimajor_km":6950.1934692266,"source":"CELESTRAK","updated_at":"2026-09-21T09:00:33.512505Z"}}